Terminal Aerodrome Forecast
Issued by NWS Cleveland, OH

Home | Current Version | Previous Version | Graphics & Text | Print | Product List | Glossary On
Versions: 1 2 3 4 5 6 7 8 9 10 11 12 13 14 15 16 17 18 19 20 21 22 23 24 25 26 27 28 29 30 31 32 33 34 35
000
FTUS41 KCLE 280500
TAFCLE
TAF
KCLE 280539Z 2806/2912 03005KT P6SM FEW030 SCT250
     FM281200 03005KT P6SM BKN030
     FM281700 36008KT P6SM SCT030
     FM290000 02005KT P6SM SCT250=

USA.gov is the U.S. government's official web portal to all federal, state and local government web resources and services.